Weather History for Hoquiam, WA

Change the Weather History Date:

Thursday, November 7, 2013

  Actual Average Record
Temperature  
Mean Temperature 52 °F 48 °F  
Max Temperature 55 °F 53 °F 63 °F (1979)
Min Temperature 49 °F 42 °F 32 °F (1977)
Degree Days  
Heating Degree Days 13 17  
Month to date heating degree days 115 117  
Cooling Degree Days 0 0  
Month to date cooling degree days 0 0  
Year to date cooling degree days 20 23  
Growing Degree Days 2 (Base 50)    
Moisture  
Dew Point 48 °F    
Average Humidity 90    
Maximum Humidity 100    
Minimum Humidity 80    
Precipitation  
Precipitation 1.25 in 0.36 in 1.66 in (1963)
Month to date precipitation 2.60 2.44  
Year to date precipitation 46.73 48.86  
Sea Level Pressure  
Sea Level Pressure 29.83 in    
Wind  
Wind Speed 20 mph (SSW)    
Max Wind Speed 40 mph    
Max Gust Speed 48 mph    
Visibility 3 miles    
Events Rain    
T = Trace of Precipitation, MM = Missing Value Source: NWS Daily Summary

Daily Weather History Graph

Daily Weather History Graph

Search for Another Location

Airport:

Trip Planner

Search our weather history database for the weather conditions in past years. The results will help you decide how hot, cold, wet, or windy it might be!

Date:

Astronomy

Nov. 07, 2013 Rise Set
Actual Time 7:07 AM PST 4:50 PM PST
Civil Twilight 6:35 AM PST 5:22 PM PST
Nautical Twilight 5:58 AM PST 5:59 PM PST
Astronomical Twilight 5:23 AM PST 6:34 PM PST
Moon 11:24 AM PST (11/7) 9:06 PM PST (11/7)
Length of Visible Light 10h 47m
Length of Day
9h 42m
Waxing Crescent, 24% of the Moon is Illuminated
Nov 7
Waxing Crescent
Nov 9
First Quarter
Nov 17
Full
Nov 25
Last Quarter
Dec 2
New

Hourly Weather History & Observations

Time (PST) Temp. Dew Point Humidity Pressure Visibility Wind Dir Wind Speed Gust Speed Precip Events Conditions
12:53 AM 50.0 °F 48.9 °F 96% 29.98 in 1.5 mi ENE 6.9 mph - 0.07 in Rain Light Rain
1:26 AM 50.0 °F 50.0 °F 100% 29.95 in 1.2 mi East 6.9 mph - 0.04 in Rain Light Rain
1:40 AM 50.0 °F 50.0 °F 100% 29.94 in 2.5 mi SE 5.8 mph - 0.04 in   Overcast
1:53 AM 51.1 °F 50.0 °F 96% 29.95 in 1.8 mi ESE 5.8 mph - 0.04 in   Overcast
1:59 AM 51.8 °F 50.0 °F 94% 29.94 in 3.0 mi SSE 11.5 mph 18.4 mph 0.01 in   Overcast
2:46 AM 55.4 °F 53.6 °F 94% 29.91 in 5.0 mi South 15.0 mph 20.7 mph 0.09 in Rain Light Rain
2:53 AM 55.0 °F 53.1 °F 93% 29.91 in 4.0 mi South 18.4 mph - 0.10 in Rain Light Rain
3:53 AM 55.0 °F 53.1 °F 93% 29.88 in 4.0 mi SSE 17.3 mph 23.0 mph 0.09 in Rain Light Rain
4:06 AM 55.4 °F 51.8 °F 88% 29.85 in 4.0 mi SSE 17.3 mph 25.3 mph 0.02 in Rain Light Rain
4:53 AM 55.0 °F 52.0 °F 89% 29.83 in 4.0 mi SSE 20.7 mph 31.1 mph 0.06 in Rain Light Rain
5:03 AM 53.6 °F 51.8 °F 94% 29.81 in 2.0 mi SSE 24.2 mph 32.2 mph 0.05 in Rain Rain
5:19 AM 53.6 °F 51.8 °F 94% 29.80 in 2.5 mi SSE 23.0 mph 28.8 mph 0.11 in Rain Rain
5:23 AM 53.6 °F 51.8 °F 94% 29.79 in 3.0 mi SSE 24.2 mph 29.9 mph 0.12 in Rain Light Rain
5:33 AM 53.6 °F 51.8 °F 94% 29.78 in 5.0 mi SSE 20.7 mph 31.1 mph 0.12 in Rain Light Rain
5:53 AM 53.1 °F 51.1 °F 93% 29.80 in 2.5 mi SSW 38.0 mph 48.3 mph 0.17 in Rain Light Rain
5:59 AM 51.8 °F 48.2 °F 88% 29.80 in 1.5 mi SW 27.6 mph 48.3 mph 0.04 in Rain Rain
6:13 AM 50.0 °F 48.2 °F 94% 29.80 in 2.5 mi SSW 18.4 mph - 0.07 in Rain Light Rain
6:16 AM 50.0 °F 48.2 °F 94% 29.80 in 3.0 mi SW 20.7 mph - 0.07 in Rain Light Rain
6:43 AM 51.8 °F 50.0 °F 94% 29.81 in 3.0 mi SSW 20.7 mph 28.8 mph 0.12 in Rain Light Rain
6:50 AM 50.0 °F 48.2 °F 94% 29.80 in 3.0 mi SSW 19.6 mph 29.9 mph 0.13 in Rain Light Rain
6:53 AM 50.0 °F 48.0 °F 93% 29.81 in 3.0 mi SW 16.1 mph 29.9 mph 0.13 in Rain Light Rain
7:28 AM 50.0 °F 46.4 °F 87% 29.81 in 4.0 mi SSW 17.3 mph 28.8 mph 0.08 in Rain Light Rain
7:53 AM 48.9 °F 46.9 °F 93% 29.83 in 4.0 mi South 16.1 mph - 0.12 in Rain Light Rain
8:06 AM 48.2 °F 48.2 °F 100% 29.82 in 2.0 mi South 15.0 mph - 0.03 in Rain Light Rain
8:24 AM 48.2 °F 46.4 °F 93% 29.82 in 3.0 mi South 15.0 mph - 0.05 in Rain Light Rain
8:33 AM 48.2 °F 46.4 °F 93% 29.82 in 2.5 mi South 13.8 mph - 0.05 in Rain Light Rain
8:44 AM 48.2 °F 46.4 °F 93% 29.81 in 5.0 mi South 15.0 mph - 0.05 in   Overcast
8:53 AM 48.9 °F 46.9 °F 93% 29.83 in 6.0 mi South 15.0 mph - 0.05 in   Overcast
9:03 AM 48.2 °F 46.4 °F 93% 29.82 in 4.0 mi South 16.1 mph - N/A   Overcast
9:51 AM 50.0 °F 46.4 °F 87% 29.79 in 2.0 mi SSE 21.9 mph - 0.04 in Rain Light Rain
9:53 AM 50.0 °F 46.9 °F 89% 29.80 in 2.5 mi SSE 20.7 mph 27.6 mph 0.04 in Rain Light Rain
10:01 AM 50.0 °F 48.2 °F 94% 29.79 in 4.0 mi South 20.7 mph 31.1 mph 0.00 in Rain Light Rain
10:15 AM 50.0 °F 48.2 °F 94% 29.79 in 6.0 mi South 20.7 mph 27.6 mph 0.00 in   Overcast
10:22 AM 50.0 °F 48.2 °F 94% 29.79 in 2.5 mi South 21.9 mph 27.6 mph 0.02 in Rain Light Rain
10:28 AM 50.0 °F 48.2 °F 94% 29.79 in 1.8 mi South 23.0 mph 28.8 mph 0.03 in Rain Light Rain
10:33 AM 50.0 °F 48.2 °F 94% 29.79 in 2.0 mi South 21.9 mph 28.8 mph 0.04 in Rain Light Rain
10:46 AM 51.8 °F 48.2 °F 88% 29.79 in 6.0 mi South 20.7 mph 33.4 mph 0.05 in   Overcast
10:53 AM 51.1 °F 48.0 °F 89% 29.80 in 5.0 mi South 23.0 mph 29.9 mph 0.05 in   Overcast
11:25 AM 51.8 °F 48.2 °F 88% 29.78 in 2.5 mi South 25.3 mph 35.7 mph 0.03 in Rain Light Rain
11:34 AM 51.8 °F 46.4 °F 82% 29.78 in 1.2 mi SSW 23.0 mph 36.8 mph 0.07 in Rain Rain
11:46 AM 50.0 °F 46.4 °F 87% 29.78 in 1.2 mi SSW 31.1 mph 38.0 mph 0.12 in Rain Rain
11:53 AM 48.9 °F 45.0 °F 86% 29.79 in 1.8 mi SSW 31.1 mph 40.3 mph 0.14 in Rain Light Rain
11:59 AM 48.2 °F 44.6 °F 87% 29.77 in 3.0 mi SSW 25.3 mph 35.7 mph 0.00 in Rain Light Rain
12:14 PM 50.0 °F 46.4 °F 87% 29.77 in 1.8 mi South 27.6 mph 34.5 mph 0.02 in Rain Light Rain
12:36 PM 50.0 °F 46.4 °F 87% 29.76 in 1.2 mi South 25.3 mph 33.4 mph 0.09 in Rain Rain
12:53 PM 50.0 °F 48.9 °F 96% 29.76 in 1.5 mi SSW 27.6 mph 33.4 mph 0.13 in Rain Light Rain
12:59 PM 51.8 °F 48.2 °F 88% 29.75 in 3.0 mi SSW 28.8 mph 34.5 mph 0.00 in   Overcast
1:04 PM 51.8 °F 48.2 °F 88% 29.75 in 1.8 mi SSW 26.5 mph 34.5 mph 0.01 in Rain Light Rain
1:17 PM 51.8 °F 48.2 °F 88% 29.75 in 3.0 mi SSW 32.2 mph 41.4 mph 0.03 in Rain Light Rain
1:28 PM 51.8 °F 48.2 °F 88% 29.75 in 4.0 mi SSW 29.9 mph 38.0 mph 0.03 in   Overcast
1:39 PM 51.8 °F 48.2 °F 88% 29.74 in 3.0 mi SSW 28.8 mph 35.7 mph 0.03 in   Overcast
1:46 PM 51.8 °F 48.2 °F 88% 29.74 in 1.8 mi SW 34.5 mph 44.9 mph 0.03 in   Overcast
1:53 PM 50.0 °F 48.0 °F 93% 29.76 in 1.0 mi SSW 31.1 mph 44.9 mph 0.04 in   Overcast
2:07 PM 51.8 °F 48.2 °F 88% 29.74 in 2.5 mi SSW 29.9 mph 41.4 mph N/A   Overcast
2:18 PM 51.8 °F 46.4 °F 82% 29.74 in 3.0 mi SSW 35.7 mph 46.0 mph N/A   Overcast
2:25 PM 51.8 °F 48.2 °F 88% 29.73 in 2.5 mi SSW 33.4 mph 43.7 mph N/A   Overcast
2:35 PM 51.8 °F 48.2 °F 88% 29.73 in 0.8 mi SSW 35.7 mph 44.9 mph 0.01 in   Overcast
2:53 PM 51.1 °F 48.9 °F 92% 29.74 in 0.8 mi SSW 38.0 mph 44.9 mph 0.02 in   Overcast
3:02 PM 51.8 °F 48.2 °F 88% 29.73 in 1.0 mi SW 34.5 mph 46.0 mph N/A   Overcast
3:13 PM 51.8 °F 48.2 °F 88% 29.74 in 2.0 mi SW 33.4 mph 44.9 mph 0.01 in   Overcast
3:27 PM 51.8 °F 48.2 °F 88% 29.75 in 3.0 mi SW 29.9 mph 41.4 mph 0.01 in   Overcast
3:53 PM 51.1 °F 48.0 °F 89% 29.78 in 4.0 mi WSW 32.2 mph 46.0 mph 0.01 in   Overcast
4:14 PM 51.8 °F 46.4 °F 82% 29.78 in 5.0 mi WSW 33.4 mph 47.2 mph N/A   Overcast
4:34 PM 51.8 °F 46.4 °F 82% 29.80 in 2.5 mi WSW 29.9 mph 43.7 mph 0.00 in Rain Light Rain
4:42 PM 51.8 °F 46.4 °F 82% 29.81 in 5.0 mi WSW 31.1 mph 43.7 mph 0.00 in   Haze
4:53 PM 51.1 °F 46.9 °F 86% 29.83 in 6.0 mi WSW 27.6 mph 40.3 mph 0.00 in   Overcast
5:53 PM 50.0 °F 48.0 °F 93% 29.90 in 4.0 mi West 24.2 mph 35.7 mph 0.00 in Rain Light Rain
6:03 PM 50.0 °F 48.2 °F 94% 29.89 in 5.0 mi West 23.0 mph 33.4 mph 0.00 in Rain Light Rain
6:22 PM 51.8 °F 46.4 °F 82% 29.91 in 6.0 mi WSW 23.0 mph 33.4 mph 0.00 in   Overcast
6:39 PM 51.8 °F 46.4 °F 82% 29.92 in 6.0 mi West 21.9 mph 31.1 mph 0.00 in   Haze
6:53 PM 51.1 °F 46.0 °F 83% 29.94 in 6.0 mi WSW 18.4 mph 27.6 mph 0.00 in   Haze
7:41 PM 51.8 °F 46.4 °F 82% 29.96 in 6.0 mi WSW 15.0 mph 23.0 mph 0.00 in   Haze
7:53 PM 51.1 °F 46.0 °F 83% 29.98 in 6.0 mi WSW 15.0 mph - 0.00 in   Haze
8:53 PM 50.0 °F 45.0 °F 83% 30.02 in 7.0 mi West 19.6 mph 24.2 mph N/A   Overcast
9:53 PM 50.0 °F 45.0 °F 83% 30.05 in 7.0 mi WSW 12.7 mph - N/A   Overcast
10:53 PM 50.0 °F 45.0 °F 83% 30.07 in 6.0 mi WSW 8.1 mph - N/A   Haze
11:53 PM 50.0 °F 46.0 °F 86% 30.08 in 6.0 mi West 6.9 mph - 0.00 in   Mostly Cloudy